Location: Adavinekkalam
(16.6301°N, 80.7229°E)
Time: 14:56:29
(UTC+00:00)

Cosmos 332 Rocket - Pass Details

Date: 15 May 2026
Orbit: 673 x 692 km, 74.0° (Epoch: 10 June)

Event Time Altitude Azimuth Distance (km) Brightness Sun altitude
Rises 13:58:07 0° 351° (N) 3,014 7.6 -13.5°
Reaches altitude 10° 14:00:25 10° 354° (N) 2,099 6.7 -14.0°
Maximum altitude 14:05:06 65° 76° (ENE) 735 3.7 -15.0°
Enters shadow 14:08:29 19° 155° (SSE) 1,601 5.2 -15.8°
